NAC241 KHYA-KPVD

Flight info

Callsign NAC241
Flight time 0h 20m
Altitude 12000
Route ZUNUX V167 TUTOR CUSKA
Aircraft B737/M-SDE2E3FGHIRWXY/LB1

Departure

Time 2026-04-27 20:08
Airport Cape Cod Gateway Airport (KHYA)

Arrival

Time 2026-04-27 20:28
Airport Rhode Island T. F. Green International Airport (KPVD)
Time Latitude Longitude Altitude Speed Heading
2026-04-27 19:40 41.66687 -70.28596 65 ft 0 kts 321°
2026-04-27 20:04 41.66692 -70.28598 65 ft 4 kts 346°
2026-04-27 20:04 41.66702 -70.28553 63 ft 8 kts 102°
2026-04-27 20:04 41.66676 -70.28483 63 ft 9 kts 127°
2026-04-27 20:04 41.66642 -70.28439 65 ft 12 kts 140°
2026-04-27 20:05 41.66548 -70.28333 69 ft 13 kts 139°
2026-04-27 20:05 41.66516 -70.28296 70 ft 0 kts 140°
2026-04-27 20:06 41.66513 -70.28293 70 ft 3 kts 140°
2026-04-27 20:06 41.66485 -70.28246 62 ft 8 kts 98°
2026-04-27 20:07 41.66508 -70.28200 66 ft 4 kts 45°
2026-04-27 20:07 41.66514 -70.28190 67 ft 0 kts 48°
2026-04-27 20:07 41.66570 -70.28105 63 ft 55 kts 49°
2026-04-27 20:07 41.67060 -70.27333 126 ft 152 kts 50°
2026-04-27 20:08 41.67845 -70.26074 902 ft 199 kts 50°
2026-04-27 20:08 41.68856 -70.24889 2575 ft 187 kts 23°
2026-04-27 20:08 41.70220 -70.24896 3630 ft 221 kts 343°
2026-04-27 20:08 41.71472 -70.26285 4286 ft 252 kts 310°
2026-04-27 20:09 41.72223 -70.28542 4642 ft 281 kts 288°
2026-04-27 20:09 41.72513 -70.31144 5451 ft 280 kts 274°
2026-04-27 20:09 41.72353 -70.33715 6092 ft 275 kts 263°
2026-04-27 20:09 41.71911 -70.36157 6746 ft 273 kts 256°
2026-04-27 20:10 41.71299 -70.38617 6505 ft 282 kts 244°
2026-04-27 20:10 41.70132 -70.40724 6267 ft 280 kts 230°
2026-04-27 20:10 41.69106 -70.42880 6029 ft 272 kts 257°
2026-04-27 20:10 41.68979 -70.45322 6049 ft 262 kts 276°
2026-04-27 20:11 41.69074 -70.47773 6034 ft 266 kts 277°
2026-04-27 20:11 41.69185 -70.50223 6052 ft 267 kts 277°
2026-04-27 20:11 41.69296 -70.52705 6021 ft 267 kts 277°
2026-04-27 20:11 41.69406 -70.55204 5997 ft 270 kts 277°
2026-04-27 20:12 41.69511 -70.57718 6030 ft 271 kts 277°
2026-04-27 20:12 41.69580 -70.59417 6040 ft 270 kts 277°
2026-04-27 20:12 41.69711 -70.62737 6029 ft 267 kts 276°
2026-04-27 20:12 41.69774 -70.64381 6007 ft 266 kts 276°
2026-04-27 20:13 41.69897 -70.67656 6031 ft 264 kts 276°
2026-04-27 20:13 41.69959 -70.69287 6033 ft 264 kts 276°
2026-04-27 20:13 41.70051 -70.71759 6015 ft 267 kts 276°
2026-04-27 20:13 41.70145 -70.74271 5745 ft 274 kts 276°
2026-04-27 20:14 41.70238 -70.76825 5382 ft 275 kts 275°
2026-04-27 20:14 41.70331 -70.79392 4995 ft 277 kts 275°
2026-04-27 20:14 41.70422 -70.81967 4596 ft 277 kts 275°
2026-04-27 20:14 41.70513 -70.84542 4208 ft 276 kts 275°
2026-04-27 20:15 41.70603 -70.87104 3827 ft 275 kts 275°
2026-04-27 20:15 41.70688 -70.89630 3485 ft 274 kts 275°
2026-04-27 20:15 41.70778 -70.92175 3120 ft 274 kts 274°
2026-04-27 20:15 41.70865 -70.94652 3039 ft 265 kts 275°
2026-04-27 20:16 41.70949 -70.97072 2962 ft 255 kts 275°
2026-04-27 20:16 41.71029 -70.99429 3004 ft 253 kts 275°
2026-04-27 20:16 41.71110 -71.01780 3018 ft 252 kts 275°
2026-04-27 20:16 41.71190 -71.04124 3013 ft 251 kts 275°
2026-04-27 20:17 41.71268 -71.06464 3018 ft 253 kts 274°
2026-04-27 20:17 41.71347 -71.08819 3003 ft 253 kts 274°
2026-04-27 20:17 41.71425 -71.11174 3016 ft 253 kts 275°
2026-04-27 20:17 41.71498 -71.13505 3031 ft 255 kts 274°
2026-04-27 20:18 41.71575 -71.15924 3004 ft 258 kts 275°
2026-04-27 20:18 41.71652 -71.18276 3003 ft 253 kts 273°
2026-04-27 20:18 41.71297 -71.20569 2964 ft 254 kts 241°
2026-04-27 20:18 41.70347 -71.22516 3074 ft 249 kts 236°
2026-04-27 20:19 41.69373 -71.24467 3021 ft 252 kts 236°
2026-04-27 20:19 41.68395 -71.26430 3056 ft 256 kts 236°
2026-04-27 20:19 41.67402 -71.28412 3028 ft 256 kts 236°
2026-04-27 20:19 41.66406 -71.30393 3042 ft 255 kts 236°
2026-04-27 20:20 41.65414 -71.32357 3005 ft 254 kts 236°
2026-04-27 20:20 41.64428 -71.34307 3006 ft 253 kts 236°
2026-04-27 20:20 41.63448 -71.36258 3001 ft 252 kts 236°
2026-04-27 20:20 41.62256 -71.37948 2996 ft 251 kts 213°
2026-04-27 20:21 41.60798 -71.39235 3000 ft 253 kts 212°
2026-04-27 20:21 41.59326 -71.40535 3006 ft 255 kts 212°
2026-04-27 20:21 41.57841 -71.41856 2871 ft 262 kts 212°
2026-04-27 20:21 41.56354 -71.43188 2727 ft 252 kts 212°
2026-04-27 20:22 41.54917 -71.44482 2637 ft 246 kts 213°
2026-04-27 20:22 41.53630 -71.45888 2504 ft 235 kts 234°
2026-04-27 20:22 41.53204 -71.47861 2471 ft 215 kts 279°
2026-04-27 20:22 41.53815 -71.49576 2345 ft 203 kts 324°
2026-04-27 20:23 41.55046 -71.50353 2318 ft 198 kts 348°
2026-04-27 20:23 41.56395 -71.50928 2233 ft 205 kts 346°
2026-04-27 20:23 41.57730 -71.51506 2023 ft 195 kts 346°
2026-04-27 20:23 41.58948 -71.52036 1987 ft 173 kts 347°
2026-04-27 20:24 41.60031 -71.52276 1975 ft 149 kts 15°
2026-04-27 20:24 41.60998 -71.51827 2001 ft 146 kts 26°
2026-04-27 20:24 41.61913 -71.51266 1986 ft 143 kts 28°
2026-04-27 20:24 41.62825 -71.50703 1876 ft 144 kts 30°
2026-04-27 20:25 41.63619 -71.50070 1838 ft 125 kts 36°
2026-04-27 20:25 41.64367 -71.49426 1653 ft 131 kts 31°
2026-04-27 20:25 41.65162 -71.48780 1599 ft 137 kts 32°
2026-04-27 20:25 41.65987 -71.48107 1493 ft 138 kts 33°
2026-04-27 20:26 41.66766 -71.47415 1347 ft 133 kts 35°
2026-04-27 20:26 41.67563 -71.46784 1121 ft 134 kts 31°
2026-04-27 20:26 41.68332 -71.46104 911 ft 130 kts 37°
2026-04-27 20:26 41.69099 -71.45431 666 ft 132 kts 36°
2026-04-27 20:27 41.69878 -71.44786 440 ft 130 kts 34°
2026-04-27 20:27 41.70641 -71.44130 213 ft 131 kts 33°
2026-04-27 20:27 41.71397 -71.43484 67 ft 121 kts 33°
2026-04-27 20:27 41.71974 -71.43001 51 ft 68 kts 32°
2026-04-27 20:28 41.72303 -71.42719 61 ft 52 kts 33°
2026-04-27 20:28 41.72563 -71.42504 54 ft 22 kts 31°
2026-04-27 20:28 41.72677 -71.42511 53 ft 13 kts 319°
2026-04-27 20:28 41.72686 -71.42521 56 ft 0 kts 318°
2026-04-27 20:29 41.72686 -71.42522 56 ft 1 kts 318°
2026-04-27 20:29 41.72715 -71.42554 55 ft 6 kts 320°
2026-04-27 20:29 41.72742 -71.42583 57 ft 4 kts 322°
2026-04-27 20:29 41.72754 -71.42596 56 ft 1 kts 321°
2026-04-27 20:30 41.72775 -71.42618 58 ft 11 kts 321°
2026-04-27 20:30 41.72861 -71.42674 53 ft 15 kts 347°
2026-04-27 20:30 41.72918 -71.42691 57 ft 0 kts 347°
2026-04-27 20:32 41.72920 -71.42691 57 ft 4 kts 347°
2026-04-27 20:32 41.73031 -71.42726 55 ft 22 kts 347°
2026-04-27 20:32 41.73128 -71.42757 58 ft 3 kts 347°
2026-04-27 20:32 41.73129 -71.42757 58 ft 0 kts 347°
2026-04-27 20:33 41.73140 -71.42758 61 ft 4 kts
2026-04-27 20:33 41.73170 -71.42728 58 ft 6 kts 59°
2026-04-27 20:33 41.73176 -71.42663 59 ft 8 kts 87°
2026-04-27 20:33 41.73161 -71.42616 58 ft 4 kts 152°
2026-04-27 20:34 41.73142 -71.42614 59 ft 2 kts 172°
2026-04-27 20:34 41.73132 -71.42613 61 ft 1 kts 179°
2026-04-27 20:34 41.73112 -71.42613 57 ft 0 kts 179°